SCP
0 0 0 0 0 0 0 0 0 0 0 0 0 0 0 0 0 0 0 0 0 0 0 0 0 0 0 0 0 0 0 0 0 0 0 0 0 0 0 0 0 0 0
0 0 0 0 0 0 0 0 0 0 0 0 0 0 0 0 0 0 0 0 0 0 0 0 0 0 0 0 0 0 0 0 0 0 0 0 0 0 0 0 0 0 0
0 0 0 0 0 0 0 0 0 0 0 0 0 0 0 0 0 0 0 0 0 0 0 0 0 0 0 0 0 0 0 0 0 0 0 0 0 0 0 0 0 0 0
0 0 0 0 0 0 0 0 0 0 0 0 0 0 0 0 0 0 0 0 0 0 0 0 0 0 0 0 0 0 0 0 0 0 0 0 0 0 0 0 0 0 0
0 0 0 0 0 0 0 0 0 0 0 0 0 0 0 0 0 0 0 0 0 0 0 0 0 0 0 0 0 0 0 0 0 0 0 0 0 0 0 0 0 0 0
0 0 0 0 0 0 0 0 0 0 0 0 0 0 0 0 0 0 0 0 0 0 0 0 0 0 0 0 0 0 0 0 0 0 0 0 0 0 0 0 0 0 0
0 0 0 0 0 0 0 0 0 0 0 0 0 0 0 0 0 0 0 0 0 0 0 0 0 0 0 0 0 0 0 0 0 0 0 0 0 0 0 0 0 0 0
0 0 0 0 0 0 0 0 0 0 0 0 0 0 0 0 0 0 0 0 0 0 0 0 0 0 0 0 0 0 0 0 0 0 0 0 0 0 0 0 0 0 0
0 0 0 0 0 0 0 0 0 0 0 0 0 0 0 0 0 0 0 0 0 0 0 0 0 0 0 0 0 0 0 0 0 0 0 0 0 0 0 0 0 0 0
0 0 0 0 0 0 0 0 0 0 0 0 0 0 0 0 0 0 0 0 0 0 0 0 0 0 0 0 0 0 0 0 0 0 0 0 0 0 0 0 0 0 0
0 0 0 0 0 0 0 0 0 0 0 0 0 0 0 0 0 0 0 0 0 0 0 0 0 0 0 0 0 0 0 0 0 0 0 0 0 0 0 0 0 0 0
0 0 0 0 0 0 0 0 0 0 0 0 0 0 0 0 0 0 0 0 0 0 0 0 0 0 0 0 0 0 0 0 0 0 0 0 0 0 0 0 0 0 0
0 0 0 0 0 0 0 0 0 0 0 0 0 0 0 0 0 0 0 0 0 0 0 0 0 0 0 0 0 0 0 0 0 0 0 0 0 0 0 0 0 0 0
0 0 0 0 0 0 0 0 0 0 0 0 0 0 0 0 0 0 0 0 0 0 0 0 0 -0 0 0 0 0 0 0 0 0 0 0 0 0 0 0 0 0 0
0 0 0 0 0 0 0 0 0 0 0 0 0 0 0 0 0 0 0 0 0 0 0 0 0 0 0 0 0 0 0 0 0 0 0 0 0 0 0 0 0 0 0
0 0 0 0 0 0 0 0 0 0 0 0 0 0 0 0 0 0 0 0 0 0 0 0 0 0 0 0 0 0 0 0 0 0 0 0 0 0 0 0 0 0 0
0 0 0 0 0 0 0 0 0 0 0 0 0 0 0 0 0 0 0 0 0 0 0 0 0 0 0 0 0 0 0 0 0 0 0 0 0 0 0 0 0 0 0
0 0 0 0 0 0 0 0 0 0 0 0 0 0 0 0 0 0 0 0 0 0 0 0 0 0 0 0 0 0 0 0 0 0 0 0 0 0 0 0 0 0 0
0 0 0 0 0 0 0 0 0 0 0 0 0 0 0 0 0 0 0 0 0 0 0 0 0 0 0 0 0 0 0 0 0 0 0 0 0 0 0 0 0 0 0
0 0 0 0 0 0 0 0 0 0 0 0 0 0 0 0 0 0 0 0 0 0 0 0 0 0 0 0 0 0 0 0 0 0 0 0 0 0 0 0 0 0 0
0 0 0 0 0 0 0 0 0 0 0 0 0 0 0 0 0 0 0 0 0 0 0 0 0 0 0 0 0 0 0 0 0 0 0 0 0 0 0 0 0 0 0
0 0 0 0 0 0 0 0 0 0 0 0 0 0 0 0 0 0 0 0 0 0 0 0 0 0 0 0 0 0 0 0 0 0 0 0 0 0 0 0 0 0 0
0 0 0 0 0 0 0 0 0 0 0 0 0 0 0 0 0 0 0 0 0 0 0 0 0 0 0 0 0 0 0 0 0 0 0 0 0 0 0 0 0 0 0
0 0 0 0 0 0 0 0 0 0 0 0 0 0 0 0 0 0 0 0 0 0 0 0 0 0 0 0 0 0 0 0 0 0 0 0 0 0 0 0 0 0 0
0 0 0 0 0 0 0 0 0 0 0 0 0 0 0 0 0 0 0 0 0 0 0 0 0 0 0 0 0 0 0 0 0 0 0 0 0 0 0 0 0 0 0
0 0 0 0 0 0 0 0 0 0 0 0 0 0 0 0 0 0 0 0 0 0 0 0 0 0 0 0 0 0 0 0 0 0 0 0 0 0 0 0 0 0 0
Wind_Speed
2 2 1 2 2 2 3 3 4 4 4 4 5 6 5 5 5 4 4 9 9 9 9 9 10 10 10 9 9 9 9 9 8 8 8 8 8 7 7 7 7 7 7
3 3 2 2 2 3 3 3 4 4 4 4 5 5 5 4 4 5 4 5 9 10 10 10 10 10 10 9 9 9 9 9 9 9 9 9 8 8 8 8 7 7 8
4 4 3 3 2 3 4 3 4 4 4 4 4 4 4 4 4 5 4 4 4 8 10 10 10 9 9 9 9 9 9 9 9 9 9 9 9 8 8 8 7 8 8
4 4 3 2 2 3 3 3 3 4 4 4 3 3 3 3 4 4 4 4 4 4 7 11 10 10 9 9 9 9 9 9 9 9 9 9 9 8 8 8 7 8 8
4 4 3 2 3 3 3 3 3 3 3 3 3 3 3 3 3 4 4 4 4 4 4 7 10 10 10 9 9 9 8 8 9 9 9 9 8 8 8 8 8 8 8
4 4 3 3 3 3 3 3 3 3 2 2 4 4 3 3 3 3 3 3 3 4 4 5 4 6 9 9 9 9 8 8 8 8 8 8 8 8 7 8 8 8 8
4 4 3 3 3 3 3 3 3 3 2 2 3 3 3 4 4 3 3 3 3 3 4 4 3 3 4 8 8 8 8 8 8 8 7 8 8 7 7 7 8 8 8
4 4 4 3 3 3 3 3 3 2 1 1 2 2 2 3 4 3 3 2 3 3 3 3 3 4 3 3 5 7 7 7 7 8 8 8 8 8 8 7 8 9 9
3 4 4 4 3 3 3 2 3 3 2 0 1 3 3 1 1 3 3 2 2 2 2 2 3 3 3 3 3 5 6 6 7 7 8 8 8 8 9 9 9 9 9
3 3 4 4 3 3 3 2 2 2 3 1 0 0 2 3 3 0 2 2 2 2 2 2 2 3 3 2 3 6 7 6 6 7 7 7 7 8 9 9 9 9 8
2 3 3 4 3 3 3 2 2 2 2 2 1 1 1 2 2 3 0 2 2 2 1 1 1 2 2 2 2 4 7 7 6 6 6 6 7 7 8 8 8 8 8
1 2 3 3 3 3 3 3 2 2 2 2 2 1 2 2 1 2 2 1 1 2 1 1 1 1 1 1 2 5 6 6 6 6 6 6 6 7 7 7 7 7 7
2 3 3 3 3 3 3 3 3 2 2 2 2 1 1 1 2 2 3 2 0 1 1 1 1 1 1 1 1 3 4 5 5 6 6 6 6 5 6 6 7 7 7
3 4 4 4 4 4 3 3 2 2 2 2 2 2 1 1 2 3 3 3 1 1 1 1 1 1 1 1 1 2 2 4 4 5 5 5 5 5 5 5 6 6 6
3 4 4 4 4 4 4 3 2 2 3 2 2 2 1 1 2 2 2 3 4 2 1 2 1 1 0 1 1 1 1 2 2 3 4 4 4 4 5 5 5 5 5
3 4 4 4 3 3 4 3 2 3 3 2 2 2 2 1 1 2 2 2 2 3 2 2 1 1 0 1 1 1 1 2 2 2 2 3 3 3 4 4 4 5 5
3 3 4 4 4 4 4 4 4 4 4 3 2 3 3 2 2 2 2 2 2 3 3 1 1 0 1 1 1 0 0 0 0 1 1 2 2 2 3 3 3 3 3
3 3 3 3 3 3 3 4 4 4 4 4 3 3 3 2 3 2 2 3 2 3 4 2 1 0 1 1 1 1 1 1 1 1 2 2 2 1 1 1 2 2 2
4 3 3 4 4 3 4 4 4 4 4 4 4 4 4 4 3 2 3 3 2 2 2 3 2 1 0 1 1 0 0 0 1 1 2 2 2 2 1 1 1 2 1
4 4 4 4 4 4 4 4 3 3 3 3 4 5 5 5 5 5 4 4 3 3 3 3 2 1 1 1 1 1 0 1 1 1 1 1 2 2 2 2 2 2 2
4 4 3 3 3 3 3 3 3 4 3 3 3 3 4 5 6 6 4 4 5 4 3 3 2 2 2 2 3 2 1 1 1 1 0 1 1 1 2 3 4 4 4
3 3 4 4 3 3 4 5 4 3 3 3 3 3 3 5 6 7 7 7 8 7 6 4 3 4 4 4 3 3 2 1 2 2 1 2 1 2 2 2 4 5 5
3 3 3 4 4 4 4 4 5 4 4 4 4 3 3 3 5 4 5 6 6 7 8 7 6 6 5 6 5 4 4 3 3 2 2 2 1 2 3 4 7 7 6
4 4 4 4 3 4 5 5 5 4 3 3 4 4 4 3 4 5 4 4 4 4 6 5 6 6 6 6 7 6 5 3 1 1 2 2 2 2 2 2 6 7 7
3 4 4 4 4 4 5 5 4 2 2 2 2 3 4 4 5 5 5 5 4 4 4 6 6 5 6 6 5 4 3 2 2 2 2 2 2 1 2 2 4 6 6
3 4 3 4 4 4 5 5 5 2 2 2 2 3 5 5 6 6 5 5 6 5 3 3 3 4 4 5 8 6 6 4 2 2 3 3 2 1 2 2 2 2 3
Wind_Direction
109 97 75 66 61 63 72 75 75 71 67 64 72 74 67 58 54 44 35 58 64 66 74 82 86 84 84 84 83 83 83 80 78 80 83 87 90 95 99 99 101 102 102
117 105 89 74 66 70 77 82 81 78 72 70 69 69 69 62 56 54 38 41 57 64 66 73 81 83 85 86 81 77 78 79 79 79 79 82 86 87 94 96 98 97 95
113 105 96 83 73 77 82 80 72 69 71 68 61 61 66 62 62 56 44 37 39 54 59 63 71 76 80 84 82 76 76 79 80 80 77 75 76 79 82 89 94 95 95
110 103 98 89 80 81 84 85 78 75 67 66 60 52 51 56 63 61 53 48 42 43 50 57 62 68 71 75 78 76 76 80 79 78 76 75 73 75 79 83 90 94 94
108 107 105 101 91 84 85 95 83 92 86 77 73 59 46 49 52 60 55 51 48 46 42 50 54 58 62 67 74 76 75 77 79 76 73 73 72 74 79 83 89 93 93
109 108 105 99 93 88 79 86 91 77 88 91 80 60 38 36 43 47 50 51 48 49 46 44 37 42 53 61 66 70 72 73 78 80 76 71 71 75 79 85 88 91 92
114 110 106 99 95 100 106 104 99 87 70 88 82 50 22 24 36 29 36 50 47 45 50 45 38 32 34 46 53 61 65 67 71 78 78 74 72 74 78 90 95 93 91
122 120 116 115 112 106 98 97 104 99 87 85 106 96 37 7 2 12 20 44 45 46 51 51 44 41 32 26 36 51 61 68 71 75 76 75 69 64 74 93 97 94 91
128 130 131 128 124 123 129 131 129 123 144 288 118 134 139 183 330 349 3 21 32 47 38 39 46 39 39 33 23 39 55 63 73 73 75 75 70 67 70 86 96 96 92
144 143 146 142 141 138 143 157 146 139 138 163 319 92 140 148 142 32 339 352 14 39 36 49 46 39 40 36 35 48 55 59 72 74 76 78 76 75 76 82 88 96 95
163 156 155 152 153 154 160 159 144 146 147 155 161 137 86 75 102 131 198 323 351 358 14 30 46 39 37 44 38 50 55 56 65 67 74 78 79 79 83 87 89 90 89
198 185 167 164 167 165 169 171 169 167 169 155 149 143 144 144 159 138 151 205 298 315 344 4 22 26 35 47 53 67 64 59 62 60 66 73 78 81 83 84 86 85 84
202 208 187 180 178 183 182 171 168 179 172 166 171 174 168 172 157 143 135 153 179 305 345 346 341 2 40 47 41 69 71 67 66 65 66 68 70 73 78 79 83 81 78
203 200 188 187 191 186 182 169 170 182 171 183 187 173 160 176 157 152 151 145 121 354 348 303 333 347 21 64 43 72 78 74 69 69 67 67 67 67 73 79 78 78 77
198 190 184 184 188 188 181 167 175 193 180 189 187 173 163 174 160 159 148 149 147 157 253 274 297 309 288 97 85 101 101 108 91 81 75 74 75 76 78 78 78 75 72
190 183 188 187 186 186 182 174 182 195 174 189 184 170 174 171 147 145 151 146 142 149 176 238 233 232 181 142 139 110 153 140 126 105 88 84 87 87 85 81 80 80 75
184 185 190 190 190 192 187 182 192 184 180 191 192 180 193 174 160 166 150 139 133 131 145 232 264 163 130 147 91 83 145 127 149 146 129 114 104 92 93 90 96 92 82
191 191 184 183 191 196 190 186 194 189 184 193 199 185 198 176 172 169 161 161 156 147 142 159 204 169 193 190 155 159 188 181 206 199 187 172 159 149 122 105 106 109 99
194 192 180 184 191 194 194 198 191 187 188 197 194 191 198 174 182 180 174 169 164 150 135 145 176 186 163 161 113 111 66 339 249 220 210 211 208 203 188 172 163 160 148
189 194 193 194 201 199 194 195 187 184 192 199 198 196 194 189 192 184 179 177 162 146 141 142 156 174 174 169 136 160 287 303 281 279 258 238 224 224 220 213 209 200 195
192 191 186 190 196 197 198 188 186 185 185 196 207 201 196 193 192 185 180 179 165 160 157 159 167 167 186 179 196 190 189 252 297 260 275 281 265 265 248 238 229 222 216
190 179 181 183 190 208 205 197 183 187 186 188 203 215 211 200 203 197 192 184 176 172 175 173 183 193 206 201 183 175 162 156 260 257 173 260 212 243 255 246 242 234 229
188 189 193 184 197 212 202 195 195 180 187 194 198 203 210 202 194 193 203 198 197 197 187 179 184 201 197 196 178 179 189 190 213 220 160 241 237 250 253 251 244 238 234
192 193 197 195 198 222 217 208 198 182 190 202 199 194 192 202 198 187 182 187 203 214 209 197 200 206 202 194 187 187 186 181 237 240 164 211 234 247 264 253 248 241 236
202 202 194 193 200 230 227 215 192 168 184 205 206 192 187 197 211 187 176 191 208 230 229 216 213 209 206 200 180 149 153 158 224 247 195 188 226 256 264 257 257 251 242
202 200 203 202 204 218 223 214 195 170 185 210 219 220 211 206 206 195 186 192 208 221 205 210 218 221 211 208 196 185 182 180 187 230 209 182 199 172 280 271 254 267 254